STARLINK-3758, 52297

Orbit data source: Space-Track

STARLINK-3758, 52297 is a payload satellite owned by SpaceX/Seattle (US) in LEO that was launched on Thu, 21 Apr 2022 UTC via an FALCON 9 launch vehicle from the Air Force Eastern Test Range (AFETR). Payload-class satellites include a variety of spacecraft equipped with specific instruments for various scientific and technological missions. These include communications satellites like Starlink; space stations such as the ISS; scientific satellites like the Hubble; Earth observation satellites from companies like Planet Labs, Umbra, and HawkEye 360; GPS; miniature CubeSats for education and research; and military/defense satellites.

Loading next visibility...
Identifier
52297, 2022-041AN
Orbit
LEO
Country
Flag of USUS
Related business
Manufacturer
SpaceX/Seattle
Mission
Operational Commercial Communications
Bus & Motor
STARLINK, Unknown motor
Mass
297 kg wet, ~275 kg dry
Launch date (UTC)
2022-04-21 (4 years ago)
Launch vehicle
FALCON 9
Launch site
Air Force Eastern Test Range (AFETR)
Object type
Payload
Rocket body
Debris
Shape & HBR
Box + 1 Pan, 10.1 m
Radar Cross Section
11.087 m², Large (>1 m²)

Expand to show TLE details & history
Last TLE update: 7 hours ago

TLE from 7 hours ago
0 STARLINK-3758
1 52297U 22041AN  26130.42283485 -.00000445  00000-0 -98821-5 0  9990
2 52297  53.2156 181.9883 0001138  79.9187 280.1934 15.08839939223820
Epoch: 2026-05-10T10:08Z
TLE epoch observation values (Epoch: 2026-05-10T10:08:52.931Z)
Latitude
0.00004°
Longitude
161.54165°
Altitude
540.502 km
Speed
7.593 km/s
True Right ascension
12h 07m 57s
True Declination
0° 00' 00"
Sunlit
Object was in full shadow at epoch
Visualization orbit readout
Latitude
Unknown
Longitude
Unknown
Altitude
Unknown
Speed
Unknown
Apparent Right ascension
Unknown
Apparent Declination
Unknown
Sunlit
N/A
Visualization observer readout
Local Sidereal Time
01:07:01
Azimuth
Unknown
Elevation
Unknown
Doppler factor
Unknown
Orbital elements
Apogee altitude
540.776 km
Perigee altitude
539.202 km
Semi-major axis
6,918.126 km
Eccentricity
0.00011
Inclination
53.2156°
RAAN
181.9883°
Arg. of periapsis
79.9187°
True anomaly
280.18056°
Mean anomaly
280.1934°
Eccentric anomaly
280.18698°
Mean motion
3.7719 °/min
Orbital period
95.44 mins
BSTAR
-0.0000098821
Loading maneuver chart data...
Computing Atmospheric mass density...
Loading historical data...
Loading historical data...
Loading historical data...
Loading historical data...
Loading historical data...
Loading historical data...
Loading historical data...

Documentation

Showing up to 5 results
|